Regional Weather Roundup
Issued by NWS

Home | Current Version | Previous Version | Text Only | Print | Product List | Glossary Off
Versions: 1 2 3 4 5 6 7 8 9 10 11 12 13 14 15 16 17 18 19 20 21 22 23 24 25 26 27 28 29 30 31 32 33 34 35 36 37 38 39 40 41 42 43 44 45 46 47 48 49 50

000
ASUS43 KOAX 271502
RWRNE

WEATHER ROUNDUP FOR NEBRASKA
NATIONAL WEATHER SERVICE OMAHA NE
1000 AM CDT MON JUL 27 2015

NOTES: SATELLITE DATA IS BEING USED TO AUGMENT CLOUD COVER ABOVE
       12000 FEET.
       "FAIR" INDICATES FEW OR NO CLOUDS BELOW 12,000 FEET WITH NO
       SIGNIFICANT WEATHER AND/OR OBSTRUCTIONS TO VISIBILITY.

  * THESE STATIONS DO NOT REPORT WEATHER SUCH AS RAIN...SNOW OR FOG.

NEZ001>004-019>022-054>056-271600-
NEBRASKA PANHANDLE

CITY           SKY/WX    TMP DP  RH WIND       PRES   REMARKS
SCOTTSBLUFF    SUNNY     71  62  73 E7        29.86F
ALLIANCE       SUNNY     72  62  71 S14       29.87F
CHADRON        SUNNY     79  62  56 SW12      29.80F
KIMBALL        SUNNY     71  60  68 W6        29.92F
SIDNEY         SUNNY     74  64  71 W9        29.92S
$$

NEZ057>060-069>072-079>082-271600-
SOUTHWEST NEBRASKA

CITY           SKY/WX    TMP DP  RH WIND       PRES   REMARKS
NORTH PLATTE   SUNNY     76  66  71 S10       29.90F
IMPERIAL       SUNNY     75  67  76 S10       29.90S
MCCOOK         PTSUNNY   74  67  78 E5        29.90F
$$

NEZ005>010-023>029-035>040-094-271600-
NORTH CENTRAL NEBRASKA

CITY           SKY/WX    TMP DP  RH WIND       PRES   REMARKS
VALENTINE      SUNNY     78  62  57 SE15      29.88F
AINSWORTH      SUNNY     79  63  57 SE13      29.90F
BROKEN BOW     MOSUNNY   76  66  71 SE7       29.92F
O`NEILL        MOSUNNY   82  74  76 S7        29.90F
ORD            MOSUNNY   81  66  60 SE7       29.90S
$$

NEZ041-046>049-061>064-073>077-083>087-271600-
SOUTH CENTRAL NEBRASKA

CITY           SKY/WX    TMP DP  RH WIND       PRES   REMARKS
GRAND ISLAND   CLOUDY    81  64  56 CALM      29.91S
AURORA         PTSUNNY   78  71  79 CALM      29.90S
HASTINGS       PTSUNNY   79  67  66 CALM      29.92R
HEBRON         CLOUDY    74  68  80 SE5       29.92R
HOLDREGE       MOSUNNY   77  65  66 S5        29.92R
KEARNEY *      CLOUDY    75  64  69 SE5       29.92S
$$

NEZ011>018-030>034-042>045-271600-
NORTHEAST NEBRASKA

CITY           SKY/WX    TMP DP  RH WIND       PRES   REMARKS
NORFOLK        CLOUDY    79  76  90 SE6       29.87F
ALBION         PTSUNNY   80  74  82 SE5       29.89F HAZE
BLAIR          PTSUNNY   81  75  82 SE7       29.88F
COLUMBUS *     PTSUNNY   81  70  69 SW5       29.87F
FREMONT        PTSUNNY   83  73  71 SW3       29.88F
TEKAMAH        CLOUDY    82  77  84 E10       29.86F HX  90
$$

NEZ050>053-065>068-078-088>093-271600-
SOUTHEAST NEBRASKA

CITY           SKY/WX    TMP DP  RH WIND       PRES   REMARKS
LINCOLN        CLOUDY    79  70  74 S6        29.89F
OMAHA EPPLEY   PTSUNNY   81  77  88 S13       29.88F
BEATRICE       CLOUDY    75  70  84 SE3       29.90R
FALLS CITY     CLOUDY    82  75  79 SE6       29.90F
$$

NEZ044-045-051>053-067-271600-
OMAHA AREA

CITY           SKY/WX    TMP DP  RH WIND       PRES   REMARKS
OMAHA EPPLEY   PTSUNNY   81  77  88 S13       29.88F
BLAIR          PTSUNNY   81  75  82 SE7       29.88F
FREMONT        PTSUNNY   83  73  71 SW3       29.88F
OFFUTT AFB     PTSUNNY   81  76  85 SE7       29.87F
WAHOO          FAIR      81  73  75 CALM      29.88S
$$


USA.gov is the U.S. government's official web portal to all federal, state and local government web resources and services.